DW9954 Weather Reports


Display with metric or nautical units.
time (UTC)temp
F
wind
direction
speed
MPH
gust
MPH
rain 1hr
in
rain 24hr
in
rain mn
in
humidity
%
barometer
mb
20260507031529 0 13 0.0 2.0 0.00 0.00 0.00 1014.0
20260507030030 0 13 0.0 3.0 0.00 0.00 0.00 1013.9
20260507024522 0 17 1.0 5.0 0.00 0.00 0.00 1013.8
20260507023018 0 13 0.0 5.0 0.00 0.00 0.00 1013.7
20260507021516 0 9 0.0 3.0 0.00 0.00 0.00 1013.7
20260507020010 0 12 0.0 4.0 0.00 0.00 0.00 1013.6
20260507014507 0 17 0.0 4.0 0.00 0.00 0.00 1013.4
20260507013001 0 5 0.0 2.0 0.00 0.00 0.00 1013.4
20260507011604 0 5 0.0 3.0 0.00 0.00 0.00 1013.3
20260507010055 0 9 0.0 3.0 0.00 0.00 0.00 1013.4
20260507004551 0 9 0.0 3.0 0.00 0.00 0.00 1013.3
20260507003046 0 5 0.0 1.0 0.00 0.00 0.00 1013.3
20260507001550 0 5 0.0 0.0 0.00 0.00 0.00 1013.3
20260507000040 0 5 0.0 1.0 0.00 0.00 0.00 1013.3
20260506234542 0 13 0.0 2.0 0.00 0.00 0.00 1013.3
20260506233030 0 360 0.0 4.0 0.00 0.00 0.00 1013.2
20260506231528 0 13 0.0 4.0 0.00 0.00 0.00 1013.2
20260506230021 0 32 0.0 3.0 0.00 0.00 0.00 1013.3
20260506224526 0 18 1.0 5.0 0.00 0.00 0.00 1013.2
20260506223014 0 14 0.0 3.0 0.00 0.00 0.00 1013.1
20260506221511 0 15 0.0 6.0 0.00 0.00 0.00 1013.0
20260506220007 0 35 1.0 5.0 0.00 0.00 0.00 1013.0
20260506214503 0 37 2.0 8.0 0.00 0.00 0.00 1012.9
20260506213103 0 41 2.0 7.0 0.00 0.00 0.00 1012.8
20260506211554 0 11 3.0 7.0 0.00 0.00 0.00 1012.7
20260506210100 0 24 1.0 9.0 0.00 0.00 0.00 1012.5
20260506204551 0 18 2.0 8.0 0.00 0.00 0.00 1012.5
20260506203121 0 13 4.0 8.0 0.00 0.00 0.00 1012.5
20260506201539 0 5 3.0 8.0 0.00 0.00 0.00 1012.4
20260506200045 0 11 3.0 7.0 0.00 0.00 0.00 1012.4
20260506194532 0 14 4.0 8.0 0.00 0.00 0.00 1012.1
20260506193028 0 12 2.0 9.0 0.00 0.00 0.00 1012.0
20260506191524 0 32 2.0 8.0 0.00 0.00 0.00 1011.8
20260506190029 0 29 5.0 9.0 0.00 0.00 0.00 1011.5
20260506184516 0 16 3.0 8.0 0.00 0.00 0.00 1011.3
20260506183013 0 15 4.0 9.0 0.00 0.00 0.00 1011.1
20260506181507 0 17 3.0 11.0 0.00 0.00 0.00 1010.9
20260506180005 0 9 4.0 9.0 0.00 0.00 0.00 1010.7
20260506174501 0 11 3.0 10.0 0.00 0.00 0.00 1010.5
20260506173058 0 14 3.0 10.0 0.00 0.00 0.00 1010.3
20260506171559 0 5 3.0 8.0 0.00 0.00 0.00 1010.2
20260506170050 0 45 3.0 9.0 0.00 0.00 0.00 1010.2
20260506164549 0 25 0.0 5.0 0.00 0.00 0.00 1010.2
20260506163056 0 17 0.0 5.0 0.00 0.00 0.00 1010.1
20260506161538 0 355 0.0 3.0 0.00 0.00 0.00 1010.1
20260506160034 0 32 2.0 6.0 0.00 0.00 0.00 1010.1
20260506154535 0 14 4.0 7.0 0.00 0.00 0.00 1010.1
20260506153028 0 19 0.0 4.0 0.00 0.00 0.00 1010.1
20260506151521 0 16 1.0 6.0 0.00 0.00 0.00 1010.0
20260506150017 0 15 3.0 12.0 0.00 0.00 0.00 1010.0
20260506144516 0 29 2.0 9.0 0.00 0.00 0.00 1009.9
20260506143014 0 20 6.0 11.0 0.00 0.00 0.00 1009.8
20260506141506 0 26 5.0 11.0 0.00 0.00 0.00 1009.8
20260506140002 0 53 3.0 9.0 0.00 0.00 0.00 1009.8
20260506134558 0 348 2.0 7.0 0.00 0.00 0.00 1009.8
20260506133054 0 23 2.0 7.0 0.00 0.00 0.00 1009.8
20260506131551 0 28 3.0 10.0 0.00 0.00 0.00 1009.9
20260506130047 0 25 1.0 8.0 0.00 0.00 0.00 1009.9
20260506124546 0 75 2.0 8.0 0.00 0.00 0.00 1009.9
20260506123039 0 118 1.0 8.0 0.00 0.00 0.00 1009.8
20260506121536 0 348 2.0 7.0 0.00 0.00 0.00 1009.8
20260506120032 0 355 2.0 9.0 0.00 0.00 0.00 1009.8
20260506114527 0 24 3.0 11.0 0.00 0.00 0.00 1009.7
20260506113023 0 355 3.0 8.0 0.00 0.00 0.00 1009.6
20260506111526 0 82 1.0 8.0 0.00 0.00 0.00 1009.5
20260506110015 0 19 3.0 8.0 0.00 0.00 0.00 1009.6
20260506104511 0 355 3.0 9.0 0.00 0.00 0.00 1009.6
20260506103006 0 44 2.0 9.0 0.00 0.00 0.00 1009.4
20260506101502 0 13 4.0 12.0 0.00 0.00 0.00 1009.4
20260506100100 0 16 3.0 10.0 0.00 0.00 0.00 1009.4
20260506094559 0 14 4.0 14.0 0.00 0.00 0.00 1009.3
20260506093058 0 49 8.0 19.0 0.00 0.00 0.00 1009.4
20260506091548 0 24 3.0 9.0 0.00 0.00 0.00 1009.2
20260506090054 0 350 4.0 9.0 0.00 0.00 0.00 1009.1
20260506084545 0 44 2.0 8.0 0.00 0.00 0.00 1009.1
20260506083038 0 36 3.0 11.0 0.00 0.00 0.00 1009.1
20260506081537 0 43 3.0 13.0 0.00 0.00 0.00 1008.9
20260506073021 0 13 3.0 6.0 0.00 0.00 0.00 1008.7
20260506071519 0 34 4.0 8.0 0.00 0.00 0.00 1008.8
20260506061601 0 360 3.0 8.0 0.00 0.00 0.00 1008.5
20260506043033 0 28 4.0 9.0 0.00 0.00 0.00 1008.3
20260506041539 0 23 2.0 7.0 0.00 0.00 0.00 1008.3
20260506040024 0 11 2.0 6.0 0.00 0.00 0.00 1008.3
20260506033018 0 24 1.0 8.0 0.00 0.00 0.00 1008.4